Regional Weather Roundup
Issued by NWS Upton, NY

Current Version | Previous Version | Text Only | Print | Product List | Glossary On
Versions: 1 2 3 4 5 6 7 8 9 10 11 12 13 14 15 16 17 18 19 20 21 22 23 24 25 26 27 28 29 30 31 32 33 34 35 36 37 38 39 40 41 42 43 44 45 46 47 48 49 50
315
ASUS41 KOKX 231609
RWROKX

REGIONAL WEATHER ROUNDUP
NATIONAL WEATHER SERVICE NEW YORK NY
1200 PM EDT FRI JUN 23 2017

NOTE: "FAIR" INDICATES FEW OR NO CLOUDS BELOW 12,000 FEET WITH NO
SIGNIFICANT WEATHER AND/OR OBSTRUCTIONS TO VISIBILITY.

NYZ071-072-176-178-NJZ106-104-231700-
NEW YORK CITY METRO AREA

CITY           SKY/WX    TMP DP  RH WIND       PRES   REMARKS
Central Park   CLOUDY    81  72  74 SW8       29.79F
Bronx Bot Gard   N/A     82  68  61 SE17      29.77F
LaGuardia APRT CLOUDY    84  73  69 S13G24    29.75F HX  90
Kennedy INTL   PTSUNNY   79  73  82 S10       29.78F
Breezy Point     N/A     73 N/A N/A SW9         N/A
Newark/Liberty CLOUDY    80  71  74 SW15      29.76F
Teterboro      LGT RAIN  83  72  69 SW15      29.73F
$$

NYZ177-179-078>081-231700-
LONG ISLAND NEW YORK

CITY           SKY/WX    TMP DP  RH WIND       PRES   REMARKS
Jones Beach      N/A     72 N/A N/A SW7G13      N/A
Matinecock PT  NOT AVBL
Farmingdale    NOT AVBL
MacArthur/ISP  CLOUDY    78  72  81 SW16G25   29.78F
Shirley        CLOUDY    75  72  90 S13       29.79F
Mt Sinai Harb    N/A    N/A N/A N/A S9          N/A
Westhampton    CLOUDY    73  68  84 SW7G17    29.81F
East Hampton   FAIR      74  69  85 SW10G17   29.80S
Montauk          N/A     73  69  87 SW9G18    29.81F
$$

NYZ052-065-067-231700-
HUDSON VALLEY

CITY           SKY/WX    TMP DP  RH WIND       PRES   REMARKS
White Plains   NOT AVBL
Larchmont Harb   N/A     73 N/A N/A S14         N/A
Croton O-T Hud   N/A     81 N/A N/A S8G15       N/A
Newburgh       PTSUNNY   82  73  74 SW12G17   29.77F
Montgomery     CLOUDY    84  74  71 SW10      29.73F HX  91
Poughkeepsie   MOSUNNY   84  71  65 S7        29.71F
Albany         CLOUDY    83  68  60 S14       29.69F
$$

NJZ001-105-106-008-010-013-015-019>022-104-231700-
NEW JERSEY

CITY           SKY/WX    TMP DP  RH WIND       PRES   REMARKS
Newark/Liberty CLOUDY    80  71  74 SW15      29.76F
Teterboro      LGT RAIN  83  72  69 SW15      29.73F
Caldwell       LGT RAIN  82  71  69 VRB5      29.75F
Somerville     CLOUDY    79  71  76 VRB5      29.74F
Linden         PTSUNNY   80  70  70 W8        29.76F
Perth Amboy      N/A     77 N/A N/A SW14G20     N/A
Sussex         PTSUNNY   80  72  76 SW9G17    29.74F
Andover          N/A     78  70  76 SW10      29.76F
Trenton        CLOUDY    77  71  82 S15G24    29.77F
Millville      CLOUDY    75  74  96 VRB7      29.82F
Atlantic City  NOT AVBL
Wrightstown    LGT RAIN  75  72  88 SW15      29.77F
Toms River     CLOUDY    78  71  79 SW18G25   29.81F
Belmar         CLOUDY    80  71  74 SW15G23   29.80F
$$

PAZ047>061-062-071-231700-
EASTERN PENNSYLVANIA

CITY           SKY/WX    TMP DP  RH WIND       PRES   REMARKS
Philadelphia   CLOUDY    75  71  87 SW13      29.79F
Allentown      LGT RAIN  74  70  87 SW5       29.76S
Scranton       CLOUDY    78  67  68 S10G20    29.73F
$$

CTZ002-004>006-009-010-012-RIZ004-006-007-MAZ004-011-015-231700-
SOUTHERN NEW ENGLAND
 IN CT

CITY           SKY/WX    TMP DP  RH WIND       PRES   REMARKS
Bradley INTL   CLOUDY    89  70  53 S15       29.73F HX  94
Hartford       CLOUDY    87  71  58 SW15G22   29.73F HX  93
Danbury        MOSUNNY   82  71  69 S12G21    29.77F
Wtrbury/Oxford PTSUNNY   81  70  69 SW8       29.79F
Bridgeport     PTSUNNY   79  70  74 S13       29.76F
Meriden        MOSUNNY   84  72  67 S12G21    29.75F
New Haven      CLOUDY    81  72  74 SE8       29.76F
Chester        FAIR      82  73  74 S10       29.78F
Groton           N/A    N/A N/A N/A MISG      29.78F
Wilimantic     MOSUNNY   89  71  55 SW14G21   29.76F HX  95

 IN RI

CITY           SKY/WX    TMP DP  RH WIND       PRES   REMARKS
Providence     PTSUNNY   84  73  69 SE10      29.77F HX  90
Block Island   CLOUDY    73  68  84 SW17      29.81F
Westerly       CLOUDY    75  69  81 S9G17     29.81S
 IN MA

CITY           SKY/WX    TMP DP  RH WIND       PRES   REMARKS
Boston         PTSUNNY   82  72  71 S10       29.74F
Worcester      SUNNY     83  65  54 S14G24    29.77F
Westfield      CLOUDY    85  72  65 S9        29.72  HX  91
Provincetown   MOSUNNY   76  69  79 S13       29.79F
Nantucket      MOSUNNY   68  65  90 S13       29.84F
$$

ANZ330-335-338-340-345-350-353-355-231700-
COASTAL MARINE OBSERVATIONS


STATION/POSITION TIME  SKY/WX   TEMP    WIND        PRES    VSBY  WAVE
                                AIR SEA DIR/SP/G                  HT/PER
                 (UTC)          (F)     (DEG/KT/KT) (MB)    (MI)  (FT/S)
NY HARB ENTRANCE 1450            69 67  200/ 14/ 16 1008.8          2/ 9
20 S FIRE ISLAND 1550            71 69  210/ 17/ 19 1008.5          3/ 4
GREAT SOUTH BAY  1530            72 76  220/ 14/ 17   N/A
23 SSW MONTAUK P 1450            68 64              1010.2          3/ 9
15 E BARNEGAT LI 1530               65                N/A           3/ 4
HUDSON CANYON    1450            70 67  210/ 14/ 16 1011.2          2/ 8
KINGS POINT      1536            76 65  240/ 13/ 17 1007.7
EXECUTION ROCKS  1545            77     170/ 10/ 14   N/A
CENTRAL LI SOUND NOT AVBL
EASTERN LI SOUND NOT AVBL
ROBBINS REEF     1536                   230/ 12/ 16 1008.6
$$


>>>>>>>>>>>>>>>>>>>>>>>>>>>> KEY <<<<<<<<<<<<<<<<<<<<<<<<<<<
>                                                          <
>     SKY/WX - Sky Condition/Present Weather               <
>     TMP    - Temperature in Fahrenheit                   <
>     DP     - Dew Point in Fahrenheit                     <
>     RH     - Relative Humidity in Percent                <
>     WIND   - Direction (from) and Speed in MPH           <
>     PRES   - Mean Sea Level Pressure (inches of Hg)      <
>     WCI    - Wind Chill Index                            <
>     VSB    - VISIBILITY IN MILES                         <
>     HX     - HEAT INDEX                                  <
>     TC     - TEMPERATURE IN CELSIUS                      <
>     VRB    - VARIABLE WIND DIRECTION                     <
>                                                          <
>>>>>>>>>>>>>>>>>>>>>>>>>>>> KEY <<<<<<<<<<<<<<<<<<<<<<<<<<<




USA.gov is the U.S. government's official web portal to all federal, state and local government web resources and services.